Terug naar catalogus

GONETS M 08

M18

ActiefCommunicatiePO
NORAD 40061·PAYLOAD·🇷🇺 Russia

Gelanceerd Jul 3, 2014 vanaf Plesetsk Cosmodrome

Loading…

Volgende Passages (komende 24 uur)

TLE

VersSource: Space-Track

Epoch: Sep 14, 2026, 15:11 UTC

1 40061U 14036A   26257.63299395 -.00000012  00000-0 -15911-3 0  9998
2 40061  82.5046 252.0085 0029002 316.0711  43.8063 12.42987641553564

Volg GONETS M 08 in realtime met AllMySat

Download on the App Store